This is the latest recevied weather packets stored in our database for station/object W4BOD. If no packets are shown the sender has not sent any weather packets the latest 10 day(s).
| Time | Temp. | Humidity | Pressure | Rain* | Wind** | Luminosity | Snow |
|---|---|---|---|---|---|---|---|
| 1788050571 | 28.33° C | 70% | 1017.7 hPa | 0 mm | - | 0 W/m² | - |
| 1788050264 | 28.33° C | 69% | 1017.7 hPa | 0 mm | - | 0 W/m² | - |
| 1788049959 | 28.33° C | 70% | 1017.6 hPa | 0 mm | - | 0 W/m² | - |
| 1788049657 | 28.89° C | 69% | 1017.7 hPa | 0 mm | - | 1 W/m² | - |
| 1788049353 | 28.89° C | 68% | 1017.6 hPa | 0 mm | - | 2 W/m² | - |
| 1788049053 | 28.89° C | 68% | 1017.8 hPa | 0 mm | - | 3 W/m² | - |
| 1788048748 | 29.44° C | 66% | 1017.5 hPa | 0 mm | - | 5 W/m² | - |
| 1788048447 | 29.44° C | 68% | 1017.9 hPa | 0 mm | - | 8 W/m² | - |
| 1788048146 | 30° C | 66% | 1017.7 hPa | 0 mm | - | 13 W/m² | - |
| 1788047844 | 30° C | 66% | 1017.6 hPa | 0 mm | - | 16 W/m² | - |
| 1788047544 | 30° C | 65% | 1017.7 hPa | 0 mm | - | 19 W/m² | - |
| 1788047238 | 30.56° C | 63% | 1017.7 hPa | 0 mm | - | 19 W/m² | - |
| 1788046939 | 30.56° C | 63% | 1017.7 hPa | 0 mm | - | 22 W/m² | - |
| 1788046637 | 31.11° C | 63% | 1017.8 hPa | 0 mm | - | 29 W/m² | - |
| 1788046332 | 31.67° C | 63% | 1017.6 hPa | 0 mm | - | 37 W/m² | - |
| 1788046030 | 32.78° C | 61% | 1017.5 hPa | 0 mm | - | 41 W/m² | - |
| 1788045725 | 33.33° C | 57% | 1017.6 hPa | 0 mm | - | 45 W/m² | - |
| 1788045420 | 34.44° C | 58% | 1017.6 hPa | 0 mm | - | 48 W/m² | - |
| 1788045115 | 35° C | 55% | 1017.5 hPa | 0 mm | - | 53 W/m² | - |
| 1788044814 | 35° C | 54% | 1017.6 hPa | 0 mm | - | 58 W/m² | - |
| 1788044509 | 35.56° C | 50% | 1017.5 hPa | 0 mm | - | 66 W/m² | - |
| 1788044204 | 36.11° C | 47% | 1017.6 hPa | 0 mm | - | 98 W/m² | - |
| 1788043900 | 35.56° C | 49% | 1017.6 hPa | 0 mm | - | 103 W/m² | - |
| 1788043595 | 35.56° C | 48% | 1017.6 hPa | 0 mm | - | 122 W/m² | - |
| 1788043290 | 35.56° C | 47% | 1017.4 hPa | 0 mm | - | 142 W/m² | - |
* Rain latest hour (hover to see other rain measurements)
** Current wind speed in m/s (hover to see current wind gust speed)